| time (UTC) | temp F | wind direction | speed MPH | gust MPH | rain 1hr in | rain 24hr in | rain mn in | humidity % | barometer mb |
| 20260505092720 | 71 | 0 | 6.0 | 9.0 | 0.00 | 0.00 | 0.00 | 4 | 1007.3 |
| 20260505092410 | 72 | 337 | 3.0 | 6.0 | 0.00 | 0.00 | 0.00 | 4 | 1007.3 |
| 20260505092258 | 72 | 315 | 2.0 | 3.0 | 0.00 | 0.00 | 0.00 | 4 | 1007.3 |
| 20260505091932 | 71 | 315 | 5.0 | 8.0 | 0.00 | 0.00 | 0.00 | 5 | 1007.4 |
| 20260505091459 | 71 | 315 | 3.0 | 4.0 | 0.00 | 0.00 | 0.00 | 4 | 1007.3 |
| 20260505091404 | 70 | 270 | 4.0 | 6.0 | 0.00 | 0.00 | 0.00 | 4 | 1007.3 |
| 20260505091020 | 70 | 270 | 4.0 | 6.0 | 0.00 | 0.00 | 0.00 | 4 | 1007.3 |
| 20260505090536 | 70 | 292 | 2.0 | 3.0 | 0.00 | 0.00 | 0.00 | 4 | 1007.2 |
| 20260505090119 | 70 | 292 | 4.0 | 6.0 | 0.00 | 0.00 | 0.00 | 5 | 1007.3 |
| 20260505085710 | 70 | 67 | 1.0 | 3.0 | 0.00 | 0.00 | 0.00 | 5 | 1007.4 |
| 20260505085707 | 70 | 67 | 1.0 | 3.0 | 0.00 | 0.00 | 0.00 | 5 | 1007.4 |
| 20260505085336 | 70 | 0 | 0.0 | 0.0 | 0.00 | 0.00 | 0.00 | 5 | 1007.5 |
| 20260505084909 | 69 | 67 | 2.0 | 3.0 | 0.00 | 0.00 | 0.00 | 5 | 1007.5 |
| 20260505084627 | 69 | 247 | 0.0 | 2.0 | 0.00 | 0.00 | 0.00 | 5 | 1007.4 |
| 20260505084457 | 69 | 292 | 3.0 | 3.0 | 0.00 | 0.00 | 0.00 | 5 | 1007.5 |
| 20260505084031 | 69 | 315 | 0.0 | 1.0 | 0.00 | 0.00 | 0.00 | 5 | 1007.6 |
| 20260505083708 | 69 | 337 | 2.0 | 3.0 | 0.00 | 0.00 | 0.00 | 5 | 1007.6 |
| 20260505083619 | 69 | 337 | 2.0 | 3.0 | 0.00 | 0.00 | 0.00 | 5 | 1007.6 |
| 20260505083211 | 68 | 337 | 4.0 | 6.0 | 0.00 | 0.00 | 0.00 | 5 | 1007.7 |
| 20260505082719 | 67 | 0 | 0.0 | 1.0 | 0.00 | 0.00 | 0.00 | 5 | 1007.6 |
| 20260505082249 | 67 | 292 | 0.0 | 2.0 | 0.00 | 0.00 | 0.00 | 5 | 1007.7 |
| 20260505081812 | 67 | 45 | 0.0 | 2.0 | 0.00 | 0.00 | 0.00 | 5 | 1007.7 |
| 20260505081340 | 67 | 315 | 3.0 | 4.0 | 0.00 | 0.00 | 0.00 | 6 | 1007.7 |
| 20260505080936 | 66 | 292 | 2.0 | 2.0 | 0.00 | 0.00 | 0.00 | 5 | 1007.9 |
| 20260505080528 | 66 | 337 | 1.0 | 2.0 | 0.00 | 0.00 | 0.00 | 6 | 1007.8 |
| 20260505080110 | 65 | 292 | 2.0 | 3.0 | 0.00 | 0.00 | 0.00 | 6 | 1007.7 |
| 20260505075657 | 65 | 315 | 2.0 | 6.0 | 0.00 | 0.00 | 0.00 | 6 | 1007.8 |
| 20260505075448 | 65 | 315 | 3.0 | 4.0 | 0.00 | 0.00 | 0.00 | 6 | 1007.8 |
| 20260505075307 | 65 | 315 | 2.0 | 3.0 | 0.00 | 0.00 | 0.00 | 6 | 1007.8 |
| 20260505075023 | 66 | 0 | 2.0 | 3.0 | 0.00 | 0.00 | 0.00 | 6 | 1007.6 |
| 20260505074538 | 65 | 22 | 1.0 | 2.0 | 0.00 | 0.00 | 0.00 | 6 | 1007.9 |
| 20260505074412 | 64 | 0 | 0.0 | 2.0 | 0.00 | 0.00 | 0.00 | 6 | 1007.7 |
| 20260505074108 | 65 | 22 | 1.0 | 2.0 | 0.00 | 0.00 | 0.00 | 6 | 1007.9 |
| 20260505073617 | 64 | 337 | 4.0 | 6.0 | 0.00 | 0.00 | 0.00 | 6 | 1007.8 |
| 20260505073128 | 64 | 315 | 3.0 | 4.0 | 0.00 | 0.00 | 0.00 | 6 | 1007.7 |
| 20260505072715 | 65 | 0 | 1.0 | 3.0 | 0.00 | 0.00 | 0.00 | 6 | 1007.7 |
| 20260505072410 | 64 | 315 | 3.0 | 3.0 | 0.00 | 0.00 | 0.00 | 6 | 1007.7 |
| 20260505072253 | 64 | 270 | 3.0 | 4.0 | 0.00 | 0.00 | 0.00 | 6 | 1007.8 |
| 20260505072005 | 64 | 292 | 3.0 | 4.0 | 0.00 | 0.00 | 0.00 | 6 | 1007.7 |
| 20260505071546 | 64 | 292 | 3.0 | 4.0 | 0.00 | 0.00 | 0.00 | 6 | 1007.8 |
| 20260505071358 | 63 | 292 | 3.0 | 4.0 | 0.00 | 0.00 | 0.00 | 6 | 1007.9 |
| 20260505071053 | 63 | 270 | 3.0 | 3.0 | 0.00 | 0.00 | 0.00 | 6 | 1007.8 |
| 20260505070603 | 63 | 270 | 5.0 | 6.0 | 0.00 | 0.00 | 0.00 | 6 | 1007.8 |
| 20260505070531 | 63 | 270 | 5.0 | 6.0 | 0.00 | 0.00 | 0.00 | 6 | 1007.8 |
| 20260505070115 | 63 | 315 | 4.0 | 6.0 | 0.00 | 0.00 | 0.00 | 6 | 1007.7 |
| 20260505065704 | 63 | 292 | 3.0 | 4.0 | 0.00 | 0.00 | 0.00 | 7 | 1007.8 |
| 20260505065520 | 63 | 292 | 3.0 | 4.0 | 0.00 | 0.00 | 0.00 | 7 | 1007.8 |
| 20260505065415 | 63 | 292 | 3.0 | 4.0 | 0.00 | 0.00 | 0.00 | 7 | 1007.8 |
| 20260505064953 | 62 | 315 | 3.0 | 6.0 | 0.00 | 0.00 | 0.00 | 8 | 1007.7 |
| 20260505064534 | 62 | 315 | 3.0 | 4.0 | 0.00 | 0.00 | 0.00 | 8 | 1007.8 |
| 20260505064050 | 61 | 315 | 3.0 | 4.0 | 0.00 | 0.00 | 0.00 | 8 | 1007.8 |
| 20260505063713 | 61 | 315 | 4.0 | 6.0 | 0.00 | 0.00 | 0.00 | 8 | 1007.9 |
| 20260505063633 | 61 | 315 | 4.0 | 6.0 | 0.00 | 0.00 | 0.00 | 8 | 1007.9 |
| 20260505063209 | 61 | 315 | 3.0 | 4.0 | 0.00 | 0.00 | 0.00 | 9 | 1007.8 |
| 20260505062719 | 62 | 292 | 3.0 | 4.0 | 0.00 | 0.00 | 0.00 | 9 | 1007.6 |
| 20260505062717 | 62 | 292 | 3.0 | 4.0 | 0.00 | 0.00 | 0.00 | 9 | 1007.6 |
| 20260505062715 | 62 | 292 | 3.0 | 4.0 | 0.00 | 0.00 | 0.00 | 9 | 1007.6 |
| 20260505062406 | 61 | 292 | 3.0 | 4.0 | 0.00 | 0.00 | 0.00 | 9 | 1007.7 |
| 20260505062001 | 61 | 315 | 3.0 | 4.0 | 0.00 | 0.00 | 0.00 | 9 | 1007.7 |
| 20260505061557 | 60 | 0 | 3.0 | 6.0 | 0.00 | 0.00 | 0.00 | 9 | 1007.7 |
| 20260505061118 | 60 | 315 | 3.0 | 3.0 | 0.00 | 0.00 | 0.00 | 9 | 1007.7 |
| 20260505060631 | 60 | 315 | 3.0 | 6.0 | 0.00 | 0.00 | 0.00 | 9 | 1007.6 |
| 20260505060202 | 60 | 315 | 3.0 | 4.0 | 0.00 | 0.00 | 0.00 | 9 | 1007.5 |
| 20260505055711 | 59 | 315 | 3.0 | 3.0 | 0.00 | 0.00 | 0.00 | 9 | 1007.5 |
| 20260505055426 | 59 | 315 | 2.0 | 3.0 | 0.00 | 0.00 | 0.00 | 9 | 1007.5 |
| 20260505055257 | 59 | 292 | 3.0 | 3.0 | 0.00 | 0.00 | 0.00 | 9 | 1007.5 |
| 20260505055013 | 59 | 292 | 3.0 | 4.0 | 0.00 | 0.00 | 0.00 | 9 | 1007.5 |
| 20260505054531 | 59 | 292 | 3.0 | 4.0 | 0.00 | 0.00 | 0.00 | 9 | 1007.6 |
| 20260505054402 | 59 | 292 | 3.0 | 4.0 | 0.00 | 0.00 | 0.00 | 9 | 1007.4 |
| 20260505054057 | 59 | 292 | 3.0 | 4.0 | 0.00 | 0.00 | 0.00 | 9 | 1007.6 |
| 20260505053609 | 59 | 315 | 3.0 | 4.0 | 0.00 | 0.00 | 0.00 | 9 | 1007.5 |
| 20260505053538 | 59 | 315 | 3.0 | 4.0 | 0.00 | 0.00 | 0.00 | 9 | 1007.5 |
| 20260505053121 | 59 | 292 | 2.0 | 3.0 | 0.00 | 0.00 | 0.00 | 9 | 1007.4 |
| 20260505052707 | 59 | 292 | 2.0 | 3.0 | 0.00 | 0.00 | 0.00 | 9 | 1007.5 |
| 20260505052705 | 59 | 292 | 2.0 | 3.0 | 0.00 | 0.00 | 0.00 | 9 | 1007.5 |
| 20260505052428 | 59 | 270 | 3.0 | 4.0 | 0.00 | 0.00 | 0.00 | 9 | 1007.5 |
| 20260505052353 | 59 | 270 | 3.0 | 4.0 | 0.00 | 0.00 | 0.00 | 9 | 1007.5 |
| 20260505052252 | 59 | 292 | 3.0 | 3.0 | 0.00 | 0.00 | 0.00 | 9 | 1007.5 |
| 20260505051802 | 59 | 292 | 3.0 | 3.0 | 0.00 | 0.00 | 0.00 | 9 | 1007.5 |
| 20260505051348 | 59 | 315 | 3.0 | 4.0 | 0.00 | 0.00 | 0.00 | 9 | 1007.3 |
| 20260505050942 | 59 | 315 | 3.0 | 4.0 | 0.00 | 0.00 | 0.00 | 9 | 1007.4 |
| 20260505050532 | 59 | 292 | 3.0 | 4.0 | 0.00 | 0.00 | 0.00 | 9 | 1007.5 |
| 20260505050116 | 59 | 292 | 3.0 | 4.0 | 0.00 | 0.00 | 0.00 | 9 | 1007.3 |
| 20260505041442 | 59 | 292 | 3.0 | 3.0 | 0.00 | 0.00 | 0.00 | 9 | 1007.3 |
| 20260505041038 | 59 | 292 | 3.0 | 3.0 | 0.00 | 0.00 | 0.00 | 9 | 1007.4 |
| 20260505040617 | 59 | 292 | 3.0 | 4.0 | 0.00 | 0.00 | 0.00 | 9 | 1007.4 |
| 20260505040153 | 59 | 292 | 2.0 | 2.0 | 0.00 | 0.00 | 0.00 | 9 | 1007.4 |
| 20260505035704 | 59 | 292 | 3.0 | 3.0 | 0.00 | 0.00 | 0.00 | 9 | 1007.4 |
| 20260505035432 | 59 | 292 | 3.0 | 4.0 | 0.00 | 0.00 | 0.00 | 9 | 1007.5 |
| 20260505035305 | 59 | 292 | 3.0 | 3.0 | 0.00 | 0.00 | 0.00 | 9 | 1007.3 |
| 20260505035023 | 59 | 292 | 2.0 | 2.0 | 0.00 | 0.00 | 0.00 | 9 | 1007.5 |
| 20260505034543 | 60 | 292 | 3.0 | 4.0 | 0.00 | 0.00 | 0.00 | 9 | 1007.5 |
| 20260505034106 | 60 | 292 | 3.0 | 3.0 | 0.00 | 0.00 | 0.00 | 9 | 1007.6 |
| 20260505033617 | 60 | 315 | 3.0 | 3.0 | 0.00 | 0.00 | 0.00 | 9 | 1007.5 |
| 20260505033543 | 60 | 337 | 3.0 | 3.0 | 0.00 | 0.00 | 0.00 | 9 | 1007.5 |
| 20260505033128 | 60 | 315 | 4.0 | 6.0 | 0.00 | 0.00 | 0.00 | 9 | 1007.5 |
| 20260505032719 | 60 | 315 | 2.0 | 3.0 | 0.00 | 0.00 | 0.00 | 9 | 1007.5 |
| 20260505032417 | 60 | 315 | 3.0 | 3.0 | 0.00 | 0.00 | 0.00 | 9 | 1007.6 |
| 20260505032009 | 60 | 292 | 3.0 | 4.0 | 0.00 | 0.00 | 0.00 | 9 | 1007.6 |
| 20260505031529 | 60 | 292 | 2.0 | 2.0 | 0.00 | 0.00 | 0.00 | 9 | 1007.5 |
| 20260505031411 | 60 | 292 | 1.0 | 2.0 | 0.00 | 0.00 | 0.00 | 9 | 1007.6 |
| 20260505031109 | 60 | 292 | 2.0 | 3.0 | 0.00 | 0.00 | 0.00 | 9 | 1007.7 |
| 20260505030619 | 60 | 292 | 2.0 | 3.0 | 0.00 | 0.00 | 0.00 | 9 | 1007.6 |
| 20260505030551 | 60 | 292 | 2.0 | 3.0 | 0.00 | 0.00 | 0.00 | 9 | 1007.7 |
| 20260505030124 | 60 | 292 | 3.0 | 4.0 | 0.00 | 0.00 | 0.00 | 9 | 1007.6 |
| 20260505025700 | 60 | 292 | 2.0 | 3.0 | 0.00 | 0.00 | 0.00 | 9 | 1007.7 |
| 20260505025659 | 60 | 292 | 2.0 | 3.0 | 0.00 | 0.00 | 0.00 | 9 | 1007.7 |
| 20260505025550 | 60 | 292 | 2.0 | 3.0 | 0.00 | 0.00 | 0.00 | 9 | 1007.7 |
| 20260505025516 | 60 | 292 | 2.0 | 3.0 | 0.00 | 0.00 | 0.00 | 9 | 1007.7 |
| 20260505025020 | 60 | 292 | 2.0 | 2.0 | 0.00 | 0.00 | 0.00 | 9 | 1007.7 |
| 20260505024616 | 60 | 270 | 3.0 | 3.0 | 0.00 | 0.00 | 0.00 | 9 | 1007.8 |
| 20260505024558 | 60 | 270 | 3.0 | 3.0 | 0.00 | 0.00 | 0.00 | 9 | 1007.8 |
| 20260505024118 | 60 | 270 | 3.0 | 4.0 | 0.00 | 0.00 | 0.00 | 9 | 1007.8 |
| 20260505023630 | 61 | 292 | 1.0 | 2.0 | 0.00 | 0.00 | 0.00 | 9 | 1007.8 |
| 20260505023201 | 61 | 292 | 1.0 | 2.0 | 0.00 | 0.00 | 0.00 | 9 | 1007.8 |
| 20260505022713 | 61 | 292 | 1.0 | 2.0 | 0.00 | 0.00 | 0.00 | 9 | 1007.6 |
| 20260505022710 | 61 | 292 | 1.0 | 2.0 | 0.00 | 0.00 | 0.00 | 9 | 1007.6 |
| 20260505022439 | 61 | 292 | 1.0 | 2.0 | 0.00 | 0.00 | 0.00 | 9 | 1007.8 |
| 20260505022023 | 61 | 292 | 2.0 | 2.0 | 0.00 | 0.00 | 0.00 | 9 | 1007.7 |
| 20260505021652 | 61 | 270 | 1.0 | 2.0 | 0.00 | 0.00 | 0.00 | 9 | 1007.9 |
| 20260505021540 | 61 | 0 | 0.0 | 1.0 | 0.00 | 0.00 | 0.00 | 9 | 1007.9 |
| 20260505021059 | 62 | 270 | 0.0 | 1.0 | 0.00 | 0.00 | 0.00 | 9 | 1007.9 |
| 20260505020628 | 62 | 270 | 1.0 | 1.0 | 0.00 | 0.00 | 0.00 | 9 | 1008.0 |
| 20260505020156 | 62 | 0 | 0.0 | 0.0 | 0.00 | 0.00 | 0.00 | 9 | 1007.8 |
| 20260505015704 | 62 | 0 | 0.0 | 0.0 | 0.00 | 0.00 | 0.00 | 9 | 1007.6 |
| 20260505015701 | 62 | 0 | 0.0 | 0.0 | 0.00 | 0.00 | 0.00 | 9 | 1007.6 |
| 20260505015515 | 62 | 0 | 0.0 | 0.0 | 0.00 | 0.00 | 0.00 | 9 | 1007.6 |
| 20260505015050 | 62 | 0 | 0.0 | 0.0 | 0.00 | 0.00 | 0.00 | 9 | 1007.7 |
| 20260505014615 | 62 | 292 | 0.0 | 1.0 | 0.00 | 0.00 | 0.00 | 9 | 1007.8 |
| 20260505014602 | 62 | 292 | 0.0 | 1.0 | 0.00 | 0.00 | 0.00 | 9 | 1007.8 |
| 20260505014130 | 62 | 0 | 0.0 | 0.0 | 0.00 | 0.00 | 0.00 | 9 | 1007.9 |
| 20260505013704 | 62 | 0 | 0.0 | 0.0 | 0.00 | 0.00 | 0.00 | 9 | 1007.8 |
| 20260505013640 | 62 | 0 | 0.0 | 0.0 | 0.00 | 0.00 | 0.00 | 9 | 1007.8 |
| 20260505013214 | 62 | 0 | 0.0 | 0.0 | 0.00 | 0.00 | 0.00 | 9 | 1007.7 |
| 20260505012721 | 62 | 292 | 0.0 | 1.0 | 0.00 | 0.00 | 0.00 | 9 | 1007.8 |
| 20260505012455 | 62 | 0 | 0.0 | 1.0 | 0.00 | 0.00 | 0.00 | 9 | 1007.8 |
| 20260505012241 | 62 | 292 | 1.0 | 2.0 | 0.00 | 0.00 | 0.00 | 9 | 1007.9 |
| 20260505012033 | 62 | 292 | 0.0 | 1.0 | 0.00 | 0.00 | 0.00 | 9 | 1007.8 |
| 20260505011532 | 62 | 292 | 1.0 | 2.0 | 0.00 | 0.00 | 0.00 | 9 | 1008.0 |
| 20260505011346 | 62 | 292 | 2.0 | 3.0 | 0.00 | 0.00 | 0.00 | 9 | 1008.1 |
| 20260505011042 | 62 | 292 | 2.0 | 3.0 | 0.00 | 0.00 | 0.00 | 9 | 1007.9 |
| 20260505010551 | 62 | 315 | 1.0 | 2.0 | 0.00 | 0.00 | 0.00 | 9 | 1008.1 |
| 20260505010519 | 62 | 315 | 1.0 | 2.0 | 0.00 | 0.00 | 0.00 | 9 | 1008.1 |
| 20260505005652 | 62 | 292 | 2.0 | 3.0 | 0.00 | 0.00 | 0.00 | 9 | 1008.1 |
| 20260505005648 | 62 | 292 | 2.0 | 3.0 | 0.00 | 0.00 | 0.00 | 9 | 1008.1 |
| 20260505005445 | 62 | 315 | 1.0 | 2.0 | 0.00 | 0.00 | 0.00 | 9 | 1008.0 |
| 20260505005020 | 62 | 315 | 3.0 | 3.0 | 0.00 | 0.00 | 0.00 | 9 | 1007.9 |
| 20260505004535 | 62 | 315 | 3.0 | 3.0 | 0.00 | 0.00 | 0.00 | 9 | 1008.0 |
| 20260505004105 | 62 | 315 | 3.0 | 4.0 | 0.00 | 0.00 | 0.00 | 9 | 1008.1 |
| 20260505003701 | 62 | 315 | 4.0 | 6.0 | 0.00 | 0.00 | 0.00 | 9 | 1008.3 |
| 20260505003640 | 62 | 337 | 4.0 | 4.0 | 0.00 | 0.00 | 0.00 | 9 | 1008.1 |
| 20260505003205 | 62 | 292 | 2.0 | 3.0 | 0.00 | 0.00 | 0.00 | 9 | 1008.1 |
| 20260505002713 | 62 | 270 | 3.0 | 3.0 | 0.00 | 0.00 | 0.00 | 9 | 1008.1 |
| 20260505002711 | 62 | 270 | 3.0 | 3.0 | 0.00 | 0.00 | 0.00 | 9 | 1008.1 |
| 20260505002709 | 62 | 270 | 3.0 | 3.0 | 0.00 | 0.00 | 0.00 | 9 | 1008.1 |
| 20260505002431 | 62 | 270 | 2.0 | 3.0 | 0.00 | 0.00 | 0.00 | 9 | 1008.1 |
| 20260505001934 | 62 | 292 | 1.0 | 2.0 | 0.00 | 0.00 | 0.00 | 9 | 1008.2 |
| 20260505001648 | 62 | 292 | 1.0 | 2.0 | 0.00 | 0.00 | 0.00 | 9 | 1008.2 |
| 20260505001516 | 62 | 292 | 1.0 | 2.0 | 0.00 | 0.00 | 0.00 | 9 | 1008.2 |
| 20260505001033 | 62 | 292 | 0.0 | 1.0 | 0.00 | 0.00 | 0.00 | 9 | 1008.3 |
| 20260505000648 | 62 | 315 | 1.0 | 2.0 | 0.00 | 0.00 | 0.00 | 9 | 1008.3 |
| 20260505000616 | 62 | 315 | 1.0 | 2.0 | 0.00 | 0.00 | 0.00 | 9 | 1008.3 |
| 20260505000150 | 62 | 292 | 1.0 | 2.0 | 0.00 | 0.00 | 0.00 | 9 | 1008.4 |
| 20260504235703 | 62 | 315 | 0.0 | 1.0 | 0.00 | 0.00 | 0.00 | 9 | 1008.3 |
| 20260504235700 | 62 | 315 | 0.0 | 1.0 | 0.00 | 0.00 | 0.00 | 9 | 1008.3 |
| 20260504235503 | 62 | 0 | 1.0 | 2.0 | 0.00 | 0.00 | 0.00 | 9 | 1008.3 |
| 20260504235046 | 62 | 292 | 0.0 | 1.0 | 0.00 | 0.00 | 0.00 | 9 | 1008.3 |
| 20260504234546 | 62 | 315 | 0.0 | 1.0 | 0.00 | 0.00 | 0.00 | 9 | 1008.4 |
| 20260504234056 | 63 | 315 | 1.0 | 2.0 | 0.00 | 0.00 | 0.00 | 9 | 1008.3 |
| 20260504233632 | 63 | 315 | 2.0 | 2.0 | 0.00 | 0.00 | 0.00 | 9 | 1008.5 |
| 20260504233157 | 63 | 315 | 3.0 | 3.0 | 0.00 | 0.00 | 0.00 | 9 | 1008.4 |
| 20260504232705 | 64 | 292 | 3.0 | 3.0 | 0.00 | 0.00 | 0.00 | 9 | 1008.3 |
| 20260504232702 | 64 | 292 | 3.0 | 3.0 | 0.00 | 0.00 | 0.00 | 9 | 1008.3 |
| 20260504232437 | 64 | 292 | 3.0 | 4.0 | 0.00 | 0.00 | 0.00 | 9 | 1008.4 |
| 20260504231955 | 64 | 292 | 3.0 | 3.0 | 0.00 | 0.00 | 0.00 | 9 | 1008.4 |
| 20260504231540 | 64 | 292 | 4.0 | 6.0 | 0.00 | 0.00 | 0.00 | 9 | 1008.3 |
| 20260504231504 | 64 | 292 | 4.0 | 6.0 | 0.00 | 0.00 | 0.00 | 9 | 1008.3 |
| 20260504231034 | 64 | 292 | 3.0 | 4.0 | 0.00 | 0.00 | 0.00 | 9 | 1008.3 |
| 20260504230650 | 64 | 292 | 2.0 | 3.0 | 0.00 | 0.00 | 0.00 | 9 | 1008.3 |
| 20260504230617 | 64 | 292 | 2.0 | 3.0 | 0.00 | 0.00 | 0.00 | 9 | 1008.3 |
| 20260504230152 | 64 | 292 | 3.0 | 3.0 | 0.00 | 0.00 | 0.00 | 9 | 1008.3 |
| 20260504225657 | 64 | 292 | 3.0 | 4.0 | 0.00 | 0.00 | 0.00 | 9 | 1008.4 |
| 20260504225500 | 64 | 292 | 3.0 | 3.0 | 0.00 | 0.00 | 0.00 | 9 | 1008.4 |
| 20260504225314 | 64 | 292 | 3.0 | 4.0 | 0.00 | 0.00 | 0.00 | 9 | 1008.3 |
| 20260504225018 | 64 | 292 | 3.0 | 4.0 | 0.00 | 0.00 | 0.00 | 9 | 1008.4 |
| 20260504224528 | 64 | 292 | 3.0 | 4.0 | 0.00 | 0.00 | 0.00 | 9 | 1008.3 |
| 20260504224058 | 64 | 292 | 3.0 | 3.0 | 0.00 | 0.00 | 0.00 | 9 | 1008.4 |
| 20260504223601 | 64 | 292 | 3.0 | 4.0 | 0.00 | 0.00 | 0.00 | 9 | 1008.3 |
| 20260504223546 | 64 | 315 | 3.0 | 4.0 | 0.00 | 0.00 | 0.00 | 9 | 1008.4 |
| 20260504223132 | 64 | 270 | 3.0 | 4.0 | 0.00 | 0.00 | 0.00 | 9 | 1008.4 |
| 20260504222731 | 64 | 292 | 5.0 | 6.0 | 0.00 | 0.00 | 0.00 | 9 | 1008.4 |
| 20260504222726 | 64 | 292 | 5.0 | 6.0 | 0.00 | 0.00 | 0.00 | 9 | 1008.4 |
| 20260504222509 | 64 | 270 | 3.0 | 6.0 | 0.00 | 0.00 | 0.00 | 9 | 1008.3 |
| 20260504222255 | 64 | 292 | 5.0 | 6.0 | 0.00 | 0.00 | 0.00 | 9 | 1008.2 |
| 20260504222046 | 64 | 270 | 3.0 | 4.0 | 0.00 | 0.00 | 0.00 | 9 | 1008.2 |
| 20260504221545 | 64 | 292 | 4.0 | 6.0 | 0.00 | 0.00 | 0.00 | 9 | 1008.1 |
| 20260504221400 | 63 | 292 | 4.0 | 6.0 | 0.00 | 0.00 | 0.00 | 9 | 1008.0 |
| 20260504221055 | 63 | 292 | 6.0 | 8.0 | 0.00 | 0.00 | 0.00 | 9 | 1008.0 |
| 20260504220604 | 63 | 270 | 2.0 | 3.0 | 0.00 | 0.00 | 0.00 | 9 | 1008.0 |
| 20260504220530 | 63 | 270 | 2.0 | 3.0 | 0.00 | 0.00 | 0.00 | 9 | 1008.0 |
| 20260504220116 | 63 | 292 | 1.0 | 2.0 | 0.00 | 0.00 | 0.00 | 9 | 1008.0 |
| 20260504215704 | 63 | 292 | 2.0 | 2.0 | 0.00 | 0.00 | 0.00 | 9 | 1008.1 |
| 20260504215702 | 63 | 292 | 2.0 | 2.0 | 0.00 | 0.00 | 0.00 | 9 | 1008.1 |
| 20260504215425 | 63 | 315 | 2.0 | 3.0 | 0.00 | 0.00 | 0.00 | 9 | 1008.1 |
| 20260504215308 | 63 | 292 | 1.0 | 2.0 | 0.00 | 0.00 | 0.00 | 9 | 1008.1 |
| 20260504214929 | 63 | 0 | 0.0 | 2.0 | 0.00 | 0.00 | 0.00 | 9 | 1007.8 |
| 20260504214456 | 63 | 337 | 1.0 | 2.0 | 0.00 | 0.00 | 0.00 | 9 | 1008.1 |
| 20260504214412 | 63 | 337 | 2.0 | 2.0 | 0.00 | 0.00 | 0.00 | 9 | 1008.0 |
| 20260504214040 | 63 | 0 | 0.0 | 1.0 | 0.00 | 0.00 | 0.00 | 9 | 1008.0 |
| 20260504213626 | 62 | 337 | 2.0 | 2.0 | 0.00 | 0.00 | 0.00 | 9 | 1008.0 |
| 20260504213545 | 62 | 337 | 2.0 | 3.0 | 0.00 | 0.00 | 0.00 | 9 | 1008.0 |
| 20260504213131 | 62 | 292 | 1.0 | 2.0 | 0.00 | 0.00 | 0.00 | 9 | 1007.7 |
| 20260504212723 | 62 | 292 | 2.0 | 3.0 | 0.00 | 0.00 | 0.00 | 9 | 1007.9 |
| 20260504212721 | 62 | 292 | 2.0 | 3.0 | 0.00 | 0.00 | 0.00 | 9 | 1007.9 |
| 20260504212458 | 62 | 292 | 2.0 | 3.0 | 0.00 | 0.00 | 0.00 | 9 | 1008.0 |
| 20260504212320 | 62 | 292 | 2.0 | 3.0 | 0.00 | 0.00 | 0.00 | 9 | 1008.0 |
| 20260504211914 | 62 | 292 | 2.0 | 3.0 | 0.00 | 0.00 | 0.00 | 9 | 1007.7 |
| 20260504211432 | 63 | 315 | 1.0 | 2.0 | 0.00 | 0.00 | 0.00 | 9 | 1007.7 |
| 20260504211027 | 63 | 0 | 0.0 | 0.0 | 0.00 | 0.00 | 0.00 | 9 | 1007.6 |
| 20260504210614 | 63 | 0 | 0.0 | 0.0 | 0.00 | 0.00 | 0.00 | 9 | 1007.6 |
| 20260504210542 | 64 | 0 | 0.0 | 0.0 | 0.00 | 0.00 | 0.00 | 9 | 1007.4 |
| 20260504210126 | 64 | 0 | 0.0 | 0.0 | 0.00 | 0.00 | 0.00 | 9 | 1007.5 |
| 20260504205711 | 64 | 0 | 0.0 | 0.0 | 0.00 | 0.00 | 0.00 | 9 | 1007.3 |
| 20260504205449 | 64 | 112 | 0.0 | 2.0 | 0.00 | 0.00 | 0.00 | 9 | 1007.3 |
| 20260504205258 | 64 | 0 | 0.0 | 0.0 | 0.00 | 0.00 | 0.00 | 9 | 1007.4 |
| 20260504204956 | 65 | 135 | 1.0 | 3.0 | 0.00 | 0.00 | 0.00 | 9 | 1007.5 |
| 20260504204530 | 65 | 90 | 5.0 | 6.0 | 0.00 | 0.00 | 0.00 | 9 | 1007.2 |
| 20260504204403 | 65 | 90 | 3.0 | 6.0 | 0.00 | 0.00 | 0.00 | 9 | 1007.4 |
| 20260504204112 | 65 | 112 | 4.0 | 8.0 | 0.00 | 0.00 | 0.00 | 9 | 1007.1 |
| 20260504203612 | 65 | 112 | 3.0 | 6.0 | 0.00 | 0.00 | 0.00 | 9 | 1007.2 |
| 20260504203535 | 65 | 112 | 3.0 | 6.0 | 0.00 | 0.00 | 0.00 | 9 | 1007.2 |
| 20260504203121 | 65 | 90 | 1.0 | 3.0 | 0.00 | 0.00 | 0.00 | 9 | 1007.2 |
| 20260504202709 | 65 | 67 | 2.0 | 3.0 | 0.00 | 0.00 | 0.00 | 9 | 1007.1 |
| 20260504202707 | 65 | 67 | 2.0 | 3.0 | 0.00 | 0.00 | 0.00 | 9 | 1007.1 |
| 20260504202426 | 65 | 90 | 2.0 | 4.0 | 0.00 | 0.00 | 0.00 | 9 | 1006.8 |
| 20260504202249 | 66 | 112 | 4.0 | 6.0 | 0.00 | 0.00 | 0.00 | 8 | 1007.0 |
| 20260504202010 | 66 | 112 | 3.0 | 6.0 | 0.00 | 0.00 | 0.00 | 8 | 1006.9 |
| 20260504201527 | 66 | 0 | 0.0 | 2.0 | 0.00 | 0.00 | 0.00 | 8 | 1006.9 |
| 20260504201409 | 66 | 90 | 1.0 | 2.0 | 0.00 | 0.00 | 0.00 | 8 | 1006.7 |
| 20260504201057 | 66 | 135 | 3.0 | 4.0 | 0.00 | 0.00 | 0.00 | 8 | 1006.7 |
| 20260504200535 | 66 | 67 | 2.0 | 4.0 | 0.00 | 0.00 | 0.00 | 8 | 1006.6 |
| 20260504200117 | 66 | 292 | 0.0 | 1.0 | 0.00 | 0.00 | 0.00 | 8 | 1006.5 |
| 20260504195706 | 67 | 315 | 0.0 | 3.0 | 0.00 | 0.00 | 0.00 | 8 | 1006.5 |
| 20260504195442 | 68 | 0 | 0.0 | 0.0 | 0.00 | 0.00 | 0.00 | 8 | 1006.4 |
| 20260504195018 | 68 | 292 | 1.0 | 1.0 | 0.00 | 0.00 | 0.00 | 8 | 1006.4 |
| 20260504194702 | 68 | 202 | 0.0 | 1.0 | 0.00 | 0.00 | 0.00 | 8 | 1006.3 |
| 20260504194533 | 68 | 0 | 0.0 | 1.0 | 0.00 | 0.00 | 0.00 | 8 | 1006.4 |
| 20260504194103 | 68 | 292 | 0.0 | 2.0 | 0.00 | 0.00 | 0.00 | 8 | 1006.5 |
| 20260504193637 | 68 | 270 | 3.0 | 4.0 | 0.00 | 0.00 | 0.00 | 8 | 1006.3 |
| 20260504193203 | 67 | 0 | 0.0 | 1.0 | 0.00 | 0.00 | 0.00 | 8 | 1006.1 |
| 20260504192707 | 66 | 90 | 3.0 | 6.0 | 0.00 | 0.00 | 0.00 | 8 | 1006.1 |
| 20260504192430 | 66 | 67 | 3.0 | 4.0 | 0.00 | 0.00 | 0.00 | 8 | 1006.0 |
| 20260504192304 | 66 | 45 | 0.0 | 3.0 | 0.00 | 0.00 | 0.00 | 8 | 1005.9 |
| 20260504191957 | 67 | 0 | 0.0 | 0.0 | 0.00 | 0.00 | 0.00 | 8 | 1006.0 |
| 20260504191520 | 67 | 315 | 1.0 | 2.0 | 0.00 | 0.00 | 0.00 | 8 | 1005.8 |
| 20260504191439 | 68 | 0 | 0.0 | 0.0 | 0.00 | 0.00 | 0.00 | 8 | 1005.7 |
| 20260504191106 | 68 | 0 | 0.0 | 1.0 | 0.00 | 0.00 | 0.00 | 8 | 1005.7 |
| 20260504190614 | 68 | 292 | 2.0 | 2.0 | 0.00 | 0.00 | 0.00 | 8 | 1005.6 |
| 20260504190550 | 68 | 292 | 2.0 | 2.0 | 0.00 | 0.00 | 0.00 | 8 | 1005.7 |
| 20260504190122 | 68 | 270 | 1.0 | 2.0 | 0.00 | 0.00 | 0.00 | 8 | 1005.5 |
| 20260504185657 | 69 | 0 | 0.0 | 0.0 | 0.00 | 0.00 | 0.00 | 8 | 1005.5 |
| 20260504185547 | 69 | 0 | 0.0 | 0.0 | 0.00 | 0.00 | 0.00 | 8 | 1005.5 |
| 20260504185456 | 68 | 0 | 0.0 | 0.0 | 0.00 | 0.00 | 0.00 | 8 | 1005.5 |
| 20260504185015 | 69 | 0 | 0.0 | 0.0 | 0.00 | 0.00 | 0.00 | 8 | 1005.3 |
| 20260504184639 | 69 | 0 | 0.0 | 0.0 | 0.00 | 0.00 | 0.00 | 8 | 1005.3 |
| 20260504184525 | 69 | 0 | 0.0 | 0.0 | 0.00 | 0.00 | 0.00 | 8 | 1005.2 |
| 20260504184054 | 69 | 0 | 0.0 | 0.0 | 0.00 | 0.00 | 0.00 | 8 | 1005.2 |
| 20260504183715 | 70 | 292 | 3.0 | 3.0 | 0.00 | 0.00 | 0.00 | 7 | 1005.2 |
| 20260504183636 | 71 | 315 | 3.0 | 4.0 | 0.00 | 0.00 | 0.00 | 7 | 1005.2 |
| 20260504183211 | 71 | 0 | 0.0 | 1.0 | 0.00 | 0.00 | 0.00 | 7 | 1005.2 |
| 20260504182720 | 73 | 315 | 3.0 | 4.0 | 0.00 | 0.00 | 0.00 | 7 | 1005.1 |
| 20260504182716 | 73 | 315 | 3.0 | 4.0 | 0.00 | 0.00 | 0.00 | 7 | 1005.1 |
| 20260504182507 | 74 | 315 | 0.0 | 4.0 | 0.00 | 0.00 | 0.00 | 7 | 1004.9 |
| 20260504182354 | 74 | 0 | 0.0 | 0.0 | 0.00 | 0.00 | 0.00 | 7 | 1004.8 |
| 20260504181903 | 75 | 0 | 0.0 | 2.0 | 0.00 | 0.00 | 0.00 | 6 | 1004.8 |
| 20260504181543 | 75 | 90 | 0.0 | 2.0 | 0.00 | 0.00 | 0.00 | 6 | 1004.8 |
| 20260504181444 | 75 | 0 | 0.0 | 2.0 | 0.00 | 0.00 | 0.00 | 6 | 1004.7 |
| 20260504181040 | 75 | 67 | 2.0 | 2.0 | 0.00 | 0.00 | 0.00 | 6 | 1004.7 |
| 20260504180620 | 76 | 0 | 0.0 | 0.0 | 0.00 | 0.00 | 0.00 | 6 | 1004.7 |
| 20260504180154 | 76 | 0 | 0.0 | 1.0 | 0.00 | 0.00 | 0.00 | 6 | 1004.6 |
| 20260504175700 | 76 | 0 | 0.0 | 0.0 | 0.00 | 0.00 | 0.00 | 6 | 1004.6 |
| 20260504175401 | 77 | 112 | 0.0 | 1.0 | 0.00 | 0.00 | 0.00 | 6 | 1004.6 |
| 20260504175329 | 77 | 112 | 0.0 | 1.0 | 0.00 | 0.00 | 0.00 | 6 | 1004.6 |
| 20260504174951 | 77 | 0 | 0.0 | 0.0 | 0.00 | 0.00 | 0.00 | 6 | 1004.7 |
| 20260504174444 | 76 | 0 | 0.0 | 0.0 | 0.00 | 0.00 | 0.00 | 6 | 1004.7 |
| 20260504174040 | 76 | 0 | 0.0 | 0.0 | 0.00 | 0.00 | 0.00 | 6 | 1004.8 |
| 20260504173611 | 76 | 112 | 0.0 | 2.0 | 0.00 | 0.00 | 0.00 | 6 | 1004.6 |
| 20260504173554 | 76 | 0 | 0.0 | 0.0 | 0.00 | 0.00 | 0.00 | 6 | 1004.8 |
| 20260504173126 | 75 | 112 | 0.0 | 1.0 | 0.00 | 0.00 | 0.00 | 6 | 1004.8 |
| 20260504172706 | 76 | 112 | 1.0 | 3.0 | 0.00 | 0.00 | 0.00 | 6 | 1004.8 |
| 20260504172701 | 76 | 112 | 1.0 | 3.0 | 0.00 | 0.00 | 0.00 | 6 | 1004.8 |
| 20260504172346 | 76 | 0 | 0.0 | 0.0 | 0.00 | 0.00 | 0.00 | 6 | 1004.7 |
| 20260504171932 | 75 | 90 | 3.0 | 3.0 | 0.00 | 0.00 | 0.00 | 6 | 1004.8 |
| 20260504171511 | 75 | 67 | 3.0 | 4.0 | 0.00 | 0.00 | 0.00 | 6 | 1004.5 |
| 20260504171046 | 75 | 67 | 2.0 | 3.0 | 0.00 | 0.00 | 0.00 | 6 | 1004.5 |
| 20260504170605 | 75 | 90 | 4.0 | 6.0 | 0.00 | 0.00 | 0.00 | 6 | 1004.6 |
| 20260504170121 | 75 | 67 | 2.0 | 4.0 | 0.00 | 0.00 | 0.00 | 6 | 1004.6 |
| 20260504160124 | 74 | 112 | 1.0 | 3.0 | 0.00 | 0.00 | 0.00 | 7 | 1004.9 |
| 20260504151038 | 69 | 67 | 5.0 | 8.0 | 0.00 | 0.00 | 0.00 | 8 | 1005.4 |
| 20260504150621 | 68 | 67 | 6.0 | 9.0 | 0.00 | 0.00 | 0.00 | 8 | 1005.5 |
| 20260504150156 | 69 | 67 | 3.0 | 4.0 | 0.00 | 0.00 | 0.00 | 8 | 1005.6 |
| 20260504141111 | 70 | 112 | 4.0 | 6.0 | 0.00 | 0.00 | 0.00 | 8 | 1006.0 |
| 20260504140611 | 71 | 90 | 3.0 | 6.0 | 0.00 | 0.00 | 0.00 | 8 | 1005.9 |
| 20260504140121 | 71 | 90 | 6.0 | 8.0 | 0.00 | 0.00 | 0.00 | 8 | 1006.1 |
| 20260504130608 | 68 | 22 | 1.0 | 3.0 | 0.00 | 0.00 | 0.00 | 9 | 1007.0 |
| 20260504130536 | 68 | 22 | 1.0 | 3.0 | 0.00 | 0.00 | 0.00 | 9 | 1007.0 |
| 20260504130120 | 66 | 90 | 2.0 | 4.0 | 0.00 | 0.00 | 0.00 | 9 | 1007.0 |
| 20260504120127 | 64 | 67 | 5.0 | 6.0 | 0.00 | 0.00 | 0.00 | 9 | 1007.6 |
| 20260504110536 | 65 | 90 | 2.0 | 3.0 | 0.00 | 0.00 | 0.00 | 9 | 1008.3 |
| 20260504110346 | 65 | 90 | 0.0 | 2.0 | 0.00 | 0.00 | 0.00 | 9 | 1008.3 |
| 20260504100614 | 63 | 315 | 0.0 | 2.0 | 0.00 | 0.00 | 0.00 | 9 | 1008.6 |
| 20260504100557 | 63 | 315 | 1.0 | 2.0 | 0.00 | 0.00 | 0.00 | 9 | 1008.5 |
| 20260504100129 | 63 | 0 | 0.0 | 0.0 | 0.00 | 0.00 | 0.00 | 9 | 1008.5 |